• en France
  • Liste des pays
  • À 7 jours
  • Température de l'eau
  • Carte satellitaire
  • Carte météo
  • Widgets météo
  • user-avatar
    Se connecter

    Météo par heure à Irganay

    Ce jour, 20 Octobre, Samedi

    Heure Température Précipitation Vent Pression Humidité
    00:00 +15°C° 0 mm 2 m/s 714 mmHg 67%
    01:00 +15°C° 0 mm 2 m/s 714 mmHg 67%
    02:00 +15°C° 0 mm 2 m/s 714 mmHg 67%
    03:00 +14°C° 0 mm 2 m/s 713 mmHg 67%
    04:00 +14°C° 0 mm 2 m/s 713 mmHg 64%
    05:00 +14°C° 0 mm 2 m/s 713 mmHg 62%
    06:00 +14°C° 0 mm 2 m/s 713 mmHg 60%
    07:00 +16°C° 0 mm 2 m/s 713 mmHg 51%
    08:00 +18°C° 0 mm 2 m/s 713 mmHg 43%
    09:00 +22°C° 0 mm 1 m/s 714 mmHg 35%
    10:00 +23°C° 0 mm 2 m/s 714 mmHg 34%
    11:00 +24°C° 0 mm 2 m/s 713 mmHg 33%
    12:00 +25°C° 0 mm 2 m/s 713 mmHg 32%
    13:00 +24°C° 0 mm 2 m/s 713 mmHg 36%
    14:00 +24°C° 0 mm 2 m/s 713 mmHg 39%
    15:00 +24°C° 0 mm 2 m/s 713 mmHg 42%
    16:00 +21°C° 0 mm 2 m/s 712 mmHg 51%
    17:00 +20°C° 0 mm 1 m/s 712 mmHg 60%
    18:00 +18°C° 0 mm 1 m/s 712 mmHg 69%
    19:00 +18°C° 0 mm 1 m/s 712 mmHg 67%
    20:00 +18°C° 0 mm 1 m/s 712 mmHg 64%
    21:00 +16°C° 0 mm 1 m/s 712 mmHg 62%
    22:00 +16°C° 0 mm 1 m/s 712 mmHg 60%
    23:00 +16°C° 0 mm 1 m/s 712 mmHg 58%

    Demain, 21 Octobre, Dimanche

    Heure Température Précipitation Vent Pression Humidité
    00:00 +16°C° 0 mm 1 m/s 712 mmHg 56%
    01:00 +16°C° 0 mm 1 m/s 712 mmHg 55%
    02:00 +15°C° 0 mm 1 m/s 712 mmHg 55%
    03:00 +15°C° 0 mm 1 m/s 712 mmHg 54%
    04:00 +15°C° 0 mm 1 m/s 712 mmHg 53%
    05:00 +15°C° 0 mm 1 m/s 712 mmHg 52%
    06:00 +15°C° 0 mm 1 m/s 712 mmHg 51%
    07:00 +18°C° 0 mm 1 m/s 712 mmHg 46%
    08:00 +20°C° 0 mm 1 m/s 712 mmHg 41%
    09:00 +20°C° 0 mm 0 m/s 713 mmHg 37%
    10:00 +23°C° 0 mm 1 m/s 713 mmHg 37%
    11:00 +24°C° 0 mm 1 m/s 713 mmHg 37%
    12:00 +24°C° 0 mm 2 m/s 713 mmHg 37%
    13:00 +24°C° 0 mm 2 m/s 712 mmHg 40%
    14:00 +24°C° 0 mm 2 m/s 712 mmHg 44%
    15:00 +23°C° 0 mm 2 m/s 712 mmHg 48%
    16:00 +21°C° 0 mm 2 m/s 712 mmHg 57%
    17:00 +20°C° 0 mm 1 m/s 712 mmHg 66%
    18:00 +18°C° 0 mm 1 m/s 712 mmHg 74%
    19:00 +18°C° 0 mm 1 m/s 712 mmHg 74%
    20:00 +18°C° 0 mm 1 m/s 712 mmHg 74%
    21:00 +18°C° 0 mm 1 m/s 712 mmHg 74%
    22:00 +16°C° 0 mm 1 m/s 712 mmHg 73%
    23:00 +16°C° 0 mm 1 m/s 712 mmHg 72%

    Après-demain, 22 Octobre, Lundi

    Heure Température Précipitation Vent Pression Humidité
    00:00 +16°C° 0 mm 1 m/s 712 mmHg 71%
    01:00 +16°C° 0 mm 1 m/s 712 mmHg 69%
    02:00 +16°C° 0 mm 1 m/s 712 mmHg 68%
    03:00 +16°C° 0 mm 1 m/s 712 mmHg 66%
    04:00 +15°C° 0 mm 1 m/s 712 mmHg 66%
    05:00 +15°C° 0 mm 1 m/s 712 mmHg 66%
    06:00 +15°C° 0 mm 1 m/s 712 mmHg 66%
    07:00 +18°C° 0 mm 1 m/s 712 mmHg 61%
    08:00 +19°C° 0 mm 1 m/s 713 mmHg 56%
    09:00 +21°C° 0 mm 1 m/s 713 mmHg 52%
    10:00 +22°C° 0 mm 1 m/s 713 mmHg 51%
    11:00 +21°C° 0 mm 2 m/s 713 mmHg 51%
    12:00 +23°C° 0 mm 2 m/s 713 mmHg 50%
    13:00 +23°C° 0 mm 2 m/s 713 mmHg 54%
    14:00 +21°C° 0 mm 2 m/s 713 mmHg 59%
    15:00 +20°C° 0 mm 2 m/s 713 mmHg 63%
    16:00 +19°C° 0 mm 2 m/s 713 mmHg 70%
    17:00 +19°C° 0 mm 1 m/s 713 mmHg 78%
    18:00 +18°C° 0 mm 1 m/s 714 mmHg 85%
    19:00 +18°C° 0 mm 1 m/s 714 mmHg 87%
    20:00 +15°C° 0 mm 0 m/s 714 mmHg 88%
    21:00 +15°C° 0 mm 0 m/s 714 mmHg 90%
    22:00 +14°C° 0 mm 0 m/s 714 mmHg 89%
    23:00 +15°C° 0 mm 1 m/s 714 mmHg 87%

    23 Octobre, Mardi

    Heure Température Précipitation Vent Pression Humidité
    00:00 +15°C° 0 mm 1 m/s 713 mmHg 86%
    01:00 +15°C° 0 mm 1 m/s 713 mmHg 84%
    02:00 +15°C° 0 mm 1 m/s 713 mmHg 81%
    03:00 +15°C° 0 mm 1 m/s 713 mmHg 79%
    04:00 +15°C° 0 mm 1 m/s 713 mmHg 77%
    05:00 +15°C° 0 mm 1 m/s 713 mmHg 75%
    06:00 +15°C° 0 mm 1 m/s 713 mmHg 74%
    07:00 +16°C° 0 mm 1 m/s 713 mmHg 68%
    08:00 +19°C° 0 mm 1 m/s 714 mmHg 62%
    09:00 +21°C° 0 mm 1 m/s 714 mmHg 56%
    10:00 +22°C° 0 mm 1 m/s 714 mmHg 54%
    11:00 +23°C° 0 mm 2 m/s 714 mmHg 51%
    12:00 +24°C° 0 mm 2 m/s 713 mmHg 49%
    13:00 +23°C° 0.1 mm 2 m/s 713 mmHg 51%
    14:00 +23°C° 0.1 mm 2 m/s 713 mmHg 54%
    15:00 +21°C° 0.1 mm 2 m/s 712 mmHg 56%
    16:00 +21°C° 0.3 mm 1 m/s 712 mmHg 62%
    17:00 +20°C° 0.3 mm 1 m/s 712 mmHg 69%
    18:00 +18°C° 0.3 mm 1 m/s 712 mmHg 75%
    19:00 +18°C° 0.2 mm 1 m/s 712 mmHg 75%
    20:00 +18°C° 0.2 mm 1 m/s 712 mmHg 76%
    21:00 +16°C° 0.2 mm 1 m/s 713 mmHg 76%
    22:00 +16°C° 0 mm 1 m/s 712 mmHg 75%
    23:00 +16°C° 0 mm 1 m/s 712 mmHg 75%

    24 Octobre, Mercredi

    Heure Température Précipitation Vent Pression Humidité
    00:00 +16°C° 0 mm 1 m/s 712 mmHg 74%
    01:00 +15°C° 0 mm 1 m/s 711 mmHg 72%
    02:00 +15°C° 0 mm 1 m/s 711 mmHg 70%
    03:00 +15°C° 0 mm 1 m/s 711 mmHg 67%
    04:00 +15°C° 0 mm 1 m/s 711 mmHg 66%
    05:00 +14°C° 0 mm 1 m/s 711 mmHg 64%
    06:00 +14°C° 0 mm 1 m/s 711 mmHg 63%
    07:00 +16°C° 0 mm 1 m/s 711 mmHg 57%
    08:00 +19°C° 0 mm 1 m/s 711 mmHg 51%
    09:00 +21°C° 0 mm 1 m/s 711 mmHg 45%
    10:00 +21°C° 0 mm 2 m/s 711 mmHg 43%
    11:00 +23°C° 0 mm 2 m/s 710 mmHg 42%
    12:00 +24°C° 0 mm 2 m/s 710 mmHg 40%
    13:00 +24°C° 0 mm 2 m/s 709 mmHg 42%
    14:00 +24°C° 0 mm 2 m/s 709 mmHg 44%
    15:00 +23°C° 0 mm 2 m/s 708 mmHg 45%
    16:00 +21°C° 0 mm 2 m/s 708 mmHg 51%
    17:00 +19°C° 0 mm 2 m/s 708 mmHg 57%
    18:00 +17°C° 0 mm 2 m/s 707 mmHg 63%
    19:00 +17°C° 0 mm 2 m/s 707 mmHg 61%
    20:00 +17°C° 0 mm 3 m/s 706 mmHg 59%
    21:00 +17°C° 0 mm 3 m/s 706 mmHg 56%
    22:00 +17°C° 0 mm 3 m/s 705 mmHg 55%
    23:00 +18°C° 0 mm 3 m/s 705 mmHg 53%

    25 Octobre, Jeudi

    Heure Température Précipitation Vent Pression Humidité
    00:00 +18°C° 0 mm 3 m/s 704 mmHg 52%
    01:00 +18°C° 0 mm 3 m/s 703 mmHg 53%
    02:00 +17°C° 0 mm 3 m/s 703 mmHg 54%
    03:00 +17°C° 0 mm 3 m/s 702 mmHg 55%
    04:00 +17°C° 0 mm 3 m/s 702 mmHg 54%
    05:00 +17°C° 0 mm 3 m/s 701 mmHg 54%
    06:00 +17°C° 0 mm 3 m/s 701 mmHg 53%
    07:00 +19°C° 0 mm 3 m/s 700 mmHg 50%
    08:00 +20°C° 0 mm 3 m/s 700 mmHg 46%
    09:00 +22°C° 0 mm 3 m/s 700 mmHg 43%
    10:00 +24°C° 0 mm 3 m/s 699 mmHg 42%
    11:00 +25°C° 0 mm 3 m/s 699 mmHg 40%
    12:00 +26°C° 0 mm 3 m/s 699 mmHg 39%
    13:00 +25°C° 0 mm 3 m/s 699 mmHg 39%
    14:00 +25°C° 0 mm 3 m/s 699 mmHg 40%
    15:00 +25°C° 0 mm 3 m/s 699 mmHg 40%
    16:00 +22°C° 0 mm 3 m/s 699 mmHg 45%
    17:00 +20°C° 0 mm 3 m/s 699 mmHg 50%
    18:00 +18°C° 0 mm 3 m/s 699 mmHg 55%
    19:00 +18°C° 0 mm 3 m/s 699 mmHg 56%
    20:00 +17°C° 0 mm 3 m/s 699 mmHg 57%
    21:00 +17°C° 0 mm 3 m/s 699 mmHg 58%
    22:00 +16°C° 0 mm 3 m/s 700 mmHg 60%
    23:00 +16°C° 0 mm 3 m/s 701 mmHg 61%
    Voir plus